Hyannis, MA

1:23 PM EST on November 18, 2017 (GMT -0500)
Barnstable Municipal-Boardman-Polando Field

Weather History for KHYA - August, 2014

Change the Weather History Date:

Saturday, August 16, 2014

  Actual Average Record
Temperature  
Mean Temperature 68 °F -  
Max Temperature 77 °F 77 °F 89 °F (1985)
Min Temperature 61 °F 63 °F 40 °F (1964)
Cooling Degree Days 3    
Growing Degree Days 18 (Base 50)    
Moisture  
Dew Point 56 °F    
Average Humidity 64    
Maximum Humidity 81    
Minimum Humidity 43    
Precipitation  
Precipitation 0.00 in - - ()
Sea Level Pressure  
Sea Level Pressure 29.96 in    
Wind  
Wind Speed 10 mph (SW)    
Max Wind Speed 24 mph    
Max Gust Speed 30 mph    
Visibility 10 miles    
Events      
Averages and records for this station are not official NWS values.
T = Trace of Precipitation, MM = Missing Value Source: NWS Daily Summary

Daily Weather History Graph

Daily Weather History Graph

Search for Another Location

Airport or City:

Trip Planner

Search our weather history database for the weather conditions in past years. The results will help you decide how hot, cold, wet, or windy it might be!

Date:

Astronomy

Aug. 16, 2014 Rise Set
Actual Time 5:50 AM EDT 7:39 PM EDT
Civil Twilight 5:20 AM EDT 8:09 PM EDT
Nautical Twilight 4:44 AM EDT 8:45 PM EDT
Astronomical Twilight 4:05 AM EDT 9:24 PM EDT
Moon 11:14 PM EDT (8/16) 12:39 PM EDT (8/16)
Length of Visible Light 14h 48m
Length of Day
13h 48m
Waning Gibbous, 59% of the Moon is Illuminated
Aug 16
Waning Gibbous
Aug 17
Last Quarter
Aug 25
New
Sep 2
First Quarter
Sep 8
Full

Hourly Weather History & Observations

Time (EDT) Temp. Dew Point Humidity Pressure Visibility Wind Dir Wind Speed Gust Speed Precip Events Conditions
12:56 AM 61.0 °F 53.1 °F 75% 29.95 in 10.0 mi West 3.5 mph - N/A   Mostly Cloudy
1:56 AM 62.1 °F 53.1 °F 72% 29.94 in 10.0 mi West 5.8 mph - N/A   Scattered Clouds
2:56 AM 63.0 °F 54.0 °F 72% 29.94 in 10.0 mi SW 6.9 mph - N/A   Overcast
3:56 AM 64.0 °F 53.1 °F 67% 29.94 in 10.0 mi West 8.1 mph - N/A   Partly Cloudy
4:56 AM 61.0 °F 53.1 °F 75% 29.95 in 10.0 mi WSW 4.6 mph - N/A   Clear
5:56 AM 61.0 °F 54.0 °F 78% 29.96 in 10.0 mi WSW 6.9 mph - N/A   Clear
6:56 AM 63.0 °F 55.0 °F 75% 29.97 in 10.0 mi SW 6.9 mph - N/A   Clear
7:56 AM 66.9 °F 55.9 °F 68% 29.99 in 10.0 mi SW 9.2 mph - N/A   Clear
8:56 AM 70.0 °F 55.0 °F 59% 29.99 in 10.0 mi WSW 13.8 mph - N/A   Clear
9:56 AM 73.0 °F 55.9 °F 55% 29.99 in 10.0 mi WSW 16.1 mph - N/A   Clear
10:56 AM 73.0 °F 54.0 °F 51% 29.99 in 10.0 mi WSW 13.8 mph 26.5 mph N/A   Partly Cloudy
11:56 AM 75.9 °F 57.0 °F 52% 29.99 in 10.0 mi SW 15.0 mph 21.9 mph N/A   Partly Cloudy
1:56 PM 75.0 °F 53.1 °F 46% 29.97 in 10.0 mi SW 20.7 mph 26.5 mph N/A   Clear
2:56 PM 75.9 °F 52.0 °F 43% 29.96 in 10.0 mi WSW 19.6 mph 28.8 mph N/A   Clear
3:56 PM 75.9 °F 53.1 °F 45% 29.95 in 10.0 mi SW 21.9 mph 29.9 mph N/A   Clear
4:56 PM 73.0 °F 53.1 °F 49% 29.96 in 10.0 mi SW 24.2 mph 29.9 mph N/A   Clear
5:56 PM 72.0 °F 54.0 °F 53% 29.95 in 10.0 mi WSW 15.0 mph - N/A   Clear
6:56 PM 71.1 °F 55.9 °F 59% 29.96 in 10.0 mi WSW 19.6 mph 25.3 mph N/A   Clear
7:56 PM 69.1 °F 59.0 °F 70% 29.96 in 10.0 mi SW 12.7 mph - N/A   Clear
8:56 PM 70.0 °F 61.0 °F 73% 29.96 in 10.0 mi SW 9.2 mph - N/A   Clear
9:56 PM 69.1 °F 62.1 °F 78% 29.97 in 10.0 mi SW 8.1 mph - N/A   Clear
10:56 PM 70.0 °F 62.1 °F 76% 29.94 in 10.0 mi SSW 6.9 mph - N/A   Clear
11:56 PM 69.1 °F 63.0 °F 81% 29.94 in 10.0 mi SSW 4.6 mph - N/A   Clear